loading
|

THOR ABLESTAR DEB, 120

Orbit data source: Space-Track

THOR ABLESTAR DEB, 120 is space debris in LEO originally from a launch on Thu, 29 Jun 1961 UTC launched from the Air Force Eastern Test Range (AFETR). Debris objects in space refer to the collection of defunct objects orbiting the Earth. Examples of debris include non-operational satellites, rocket bodies, and fragments generated from explosions, collisions, or faulty payload assembly.

Loading next visibility...
Loading greatness...
THOR ABLESTAR DEB details
Identifier
120, 1961-015E
Orbit
LEO
Last TLE update10 hours ago
Origin
Flag of USUSAF SSD (US)
ManufacturerUnknown
Mission statusUnknown
MissionUnknown
Bus & MotorUnknown
MassUnknown
Launch date (UTC)
1961-06-29 (63 years ago)
Launch vehicleUnknown
Launch site
Air Force Eastern Test Range (AFETR)
Object type
Payload
Rocket body
Debris
Radar Cross SectionMedium (>0.1 m² and <1 m²)

Expand to show TLE details & history

TLE from 10 hours ago
0 THOR ABLESTAR DEB
1   120U 61015E   24258.87297026  .00002765  00000-0  10825-2 0  9996
2   120  66.7068 303.4409 0106143 110.1432 251.1122 14.27857391257294
Epoch: 2024-09-14T20:57Z
Definitive object data (Epoch: 2024-09-14T20:57:04.63Z)
Latitude-0.00002°
Longitude-5.15285°
Altitude826.391 km
Speed7.427 km/s
True Right ascension20h 13m 45s
True Declination0° 00' 00"
Sunlit
Object was in full shadow at TLE epoch
Predictive object data (real-time)
Latitude33.6406°
Longitude10.28972°
Altitude779.243 km
Speed7.48 km/s
Apparent Right ascension17h 35m 25s
Apparent Declination-1° 55' 12"
Sunlit
Object is in full shadow
Predictive observer data (real-time)
Local Sidereal Time23:51:06
Azimuth271.044° WNW
Elevation-4.24°
Doppler factor1
Orbital elements
Apogee873.439 km
Perigee721.115 km
Semi-major axis7,175.414 km
Eccentricity0.0106143
Inclination66.7068°
RAAN303.4409°
Arg. of periapsis110.1432°
True anomaly249.96638°
Mean anomaly251.1122°
Eccentric anomaly250.53879°
Mean motion3.57086 °/min
BSTAR0.0010825
Period100.82 mins
No data available

THOR ABLESTAR DEB Visibility forecast

Observer location: 39.9160978°, -105.1181434

THOR ABLESTAR DEB is not visible in the next 10 days
Span
Click to sort rows by Start time (UTC) header in descending order
Start Az.
Max El. time (UTC)
Max El. Az.
Max El.
End time (UTC)
End Az.